When you browse on this site, cookies collect data to enhance your experience and personalize the content and advertising you see.
Visit our Privacy Policy to learn more. By continuing to use the site, you agree to this use of cookies and data.
  • In Portugal
  • List of Countries
  • For 7 days
  • Water Temperature
  • Satellite Maps
  • Weather Map
  • Weather Widgets
  • user-avatar
    Login

    Hourly Weather Trypolis

    Today, 11 December, Tuesday

    Time Temperature Precipitation Wind Pressure Humidity
    00:00 +13°C° 0 mm 8 mps 766 mmHg 66%
    01:00 +13°C° 0 mm 8 mps 765 mmHg 66%
    02:00 +13°C° 0 mm 8 mps 765 mmHg 66%
    03:00 +13°C° 0 mm 8 mps 765 mmHg 66%
    04:00 +13°C° 0 mm 8 mps 765 mmHg 66%
    05:00 +13°C° 0 mm 8 mps 765 mmHg 66%
    06:00 +13°C° 0 mm 8 mps 765 mmHg 67%
    07:00 +14°C° 0 mm 7 mps 765 mmHg 68%
    08:00 +15°C° 0 mm 7 mps 766 mmHg 64%
    09:00 +16°C° 0 mm 7 mps 766 mmHg 61%
    10:00 +17°C° 0 mm 7 mps 766 mmHg 58%
    11:00 +17°C° 0 mm 7 mps 766 mmHg 56%
    12:00 +18°C° 0 mm 7 mps 766 mmHg 54%
    13:00 +19°C° 0 mm 6 mps 766 mmHg 52%
    14:00 +19°C° 0 mm 6 mps 766 mmHg 52%
    15:00 +19°C° 0 mm 6 mps 765 mmHg 51%
    16:00 +19°C° 0 mm 5 mps 765 mmHg 51%
    17:00 +17°C° 0 mm 5 mps 765 mmHg 54%
    18:00 +17°C° 0 mm 4 mps 766 mmHg 58%
    19:00 +15°C° 0 mm 4 mps 766 mmHg 61%
    20:00 +16°C° 0 mm 3 mps 766 mmHg 62%
    21:00 +14°C° 0 mm 3 mps 766 mmHg 62%
    22:00 +14°C° 0 mm 3 mps 766 mmHg 63%
    23:00 +14°C° 0 mm 3 mps 766 mmHg 62%

    Tomorrow, 12 December, Wednesday

    Time Temperature Precipitation Wind Pressure Humidity
    00:00 +13°C° 0 mm 3 mps 766 mmHg 60%
    01:00 +13°C° 0 mm 3 mps 766 mmHg 59%
    02:00 +13°C° 0 mm 3 mps 766 mmHg 57%
    03:00 +13°C° 0 mm 3 mps 765 mmHg 55%
    04:00 +13°C° 0 mm 3 mps 765 mmHg 52%
    05:00 +12°C° 0 mm 3 mps 765 mmHg 51%
    06:00 +12°C° 0 mm 3 mps 765 mmHg 50%
    07:00 +12°C° 0 mm 3 mps 765 mmHg 49%
    08:00 +14°C° 0 mm 3 mps 765 mmHg 43%
    09:00 +17°C° 0 mm 4 mps 766 mmHg 38%
    10:00 +18°C° 0 mm 4 mps 766 mmHg 33%
    11:00 +19°C° 0 mm 4 mps 765 mmHg 30%
    12:00 +20°C° 0 mm 4 mps 765 mmHg 28%
    13:00 +21°C° 0 mm 4 mps 765 mmHg 26%
    14:00 +21°C° 0 mm 4 mps 764 mmHg 26%
    15:00 +21°C° 0 mm 4 mps 764 mmHg 26%
    16:00 +21°C° 0 mm 4 mps 764 mmHg 27%
    17:00 +19°C° 0 mm 3 mps 764 mmHg 32%
    18:00 +18°C° 0 mm 3 mps 764 mmHg 37%
    19:00 +16°C° 0 mm 2 mps 764 mmHg 42%
    20:00 +16°C° 0 mm 2 mps 764 mmHg 41%
    21:00 +16°C° 0 mm 2 mps 764 mmHg 39%
    22:00 +16°C° 0 mm 3 mps 764 mmHg 37%
    23:00 +16°C° 0 mm 3 mps 764 mmHg 37%

    Day after tomorrow, 13 December, Thursday

    Time Temperature Precipitation Wind Pressure Humidity
    00:00 +16°C° 0 mm 3 mps 764 mmHg 37%
    01:00 +14°C° 0 mm 4 mps 763 mmHg 37%
    02:00 +14°C° 0 mm 4 mps 763 mmHg 38%
    03:00 +13°C° 0 mm 4 mps 763 mmHg 39%
    04:00 +13°C° 0 mm 4 mps 763 mmHg 40%
    05:00 +13°C° 0 mm 4 mps 763 mmHg 40%
    06:00 +13°C° 0 mm 4 mps 763 mmHg 41%
    07:00 +12°C° 0 mm 4 mps 763 mmHg 42%
    08:00 +14°C° 0 mm 4 mps 763 mmHg 38%
    09:00 +16°C° 0 mm 5 mps 763 mmHg 35%
    10:00 +19°C° 0 mm 5 mps 763 mmHg 31%
    11:00 +20°C° 0 mm 5 mps 762 mmHg 29%
    12:00 +21°C° 0 mm 5 mps 762 mmHg 27%
    13:00 +22°C° 0 mm 5 mps 761 mmHg 25%
    14:00 +22°C° 0 mm 5 mps 761 mmHg 25%
    15:00 +21°C° 0 mm 4 mps 761 mmHg 26%
    16:00 +21°C° 0 mm 4 mps 760 mmHg 26%
    17:00 +20°C° 0 mm 3 mps 761 mmHg 30%
    18:00 +18°C° 0 mm 3 mps 761 mmHg 33%
    19:00 +17°C° 0 mm 3 mps 761 mmHg 36%
    20:00 +17°C° 0 mm 3 mps 761 mmHg 36%
    21:00 +17°C° 0 mm 4 mps 760 mmHg 35%
    22:00 +16°C° 0 mm 5 mps 760 mmHg 34%
    23:00 +15°C° 0 mm 5 mps 760 mmHg 35%

    14 December, Friday

    Time Temperature Precipitation Wind Pressure Humidity
    00:00 +15°C° 0 mm 5 mps 760 mmHg 36%
    01:00 +15°C° 0 mm 5 mps 759 mmHg 36%
    02:00 +14°C° 0 mm 6 mps 759 mmHg 37%
    03:00 +14°C° 0 mm 6 mps 758 mmHg 38%
    04:00 +14°C° 0 mm 6 mps 758 mmHg 39%
    05:00 +14°C° 0 mm 7 mps 758 mmHg 39%
    06:00 +14°C° 0 mm 7 mps 758 mmHg 39%
    07:00 +14°C° 0 mm 7 mps 757 mmHg 38%
    08:00 +16°C° 0 mm 8 mps 757 mmHg 34%
    09:00 +17°C° 0 mm 9 mps 757 mmHg 30%
    10:00 +19°C° 0 mm 10 mps 757 mmHg 26%
    11:00 +21°C° 0 mm 10 mps 757 mmHg 24%
    12:00 +21°C° 0 mm 10 mps 756 mmHg 23%
    13:00 +22°C° 0 mm 10 mps 756 mmHg 21%
    14:00 +21°C° 0 mm 10 mps 756 mmHg 25%
    15:00 +19°C° 0 mm 9 mps 755 mmHg 29%
    16:00 +18°C° 0 mm 9 mps 755 mmHg 32%
    17:00 +17°C° 0 mm 10 mps 756 mmHg 32%
    18:00 +16°C° 0 mm 10 mps 756 mmHg 32%
    19:00 +14°C° 0 mm 11 mps 756 mmHg 33%
    20:00 +14°C° 0 mm 11 mps 756 mmHg 33%
    21:00 +14°C° 0 mm 12 mps 756 mmHg 33%
    22:00 +14°C° 0 mm 12 mps 756 mmHg 33%
    23:00 +13°C° 0.1 mm 12 mps 756 mmHg 35%

    15 December, Saturday

    Time Temperature Precipitation Wind Pressure Humidity
    00:00 +13°C° 0.1 mm 12 mps 756 mmHg 36%
    01:00 +12°C° 0.1 mm 12 mps 756 mmHg 38%
    02:00 +12°C° 0.4 mm 12 mps 756 mmHg 40%
    03:00 +12°C° 0.4 mm 11 mps 756 mmHg 43%
    04:00 +12°C° 0.4 mm 11 mps 756 mmHg 45%
    05:00 +12°C° 0.4 mm 10 mps 757 mmHg 50%
    06:00 +12°C° 0.4 mm 10 mps 757 mmHg 55%
    07:00 +11°C° 0.4 mm 9 mps 758 mmHg 60%
    08:00 +13°C° 0.4 mm 9 mps 758 mmHg 61%
    09:00 +15°C° 0.4 mm 9 mps 759 mmHg 61%
    10:00 +16°C° 0.4 mm 10 mps 759 mmHg 62%
    11:00 +16°C° 0.4 mm 11 mps 760 mmHg 62%
    12:00 +17°C° 0.4 mm 12 mps 760 mmHg 63%
    13:00 +17°C° 0.4 mm 12 mps 760 mmHg 64%
    14:00 +17°C° 0.9 mm 13 mps 760 mmHg 64%
    15:00 +15°C° 0.9 mm 13 mps 760 mmHg 64%
    16:00 +15°C° 0.9 mm 13 mps 760 mmHg 65%
    17:00 +15°C° 0.6 mm 13 mps 761 mmHg 64%
    18:00 +14°C° 0.6 mm 12 mps 761 mmHg 64%
    19:00 +14°C° 0.6 mm 11 mps 762 mmHg 64%
    20:00 +14°C° 0.5 mm 11 mps 762 mmHg 64%
    21:00 +14°C° 0.5 mm 11 mps 762 mmHg 65%
    22:00 +13°C° 0.5 mm 11 mps 763 mmHg 65%
    23:00 +13°C° 0.5 mm 11 mps 763 mmHg 66%

    16 December, Sunday

    Time Temperature Precipitation Wind Pressure Humidity
    00:00 +13°C° 0.5 mm 12 mps 763 mmHg 68%
    01:00 +13°C° 0.5 mm 12 mps 762 mmHg 69%
    02:00 +13°C° 0.3 mm 12 mps 763 mmHg 70%
    03:00 +13°C° 0.3 mm 12 mps 763 mmHg 70%
    04:00 +13°C° 0.3 mm 12 mps 763 mmHg 71%
    05:00 +13°C° 0.3 mm 12 mps 763 mmHg 71%
    06:00 +13°C° 0.3 mm 12 mps 763 mmHg 72%
    07:00 +12°C° 0.3 mm 12 mps 764 mmHg 73%
    08:00 +13°C° 0.2 mm 12 mps 764 mmHg 70%
    09:00 +14°C° 0.2 mm 12 mps 765 mmHg 67%
    10:00 +14°C° 0.2 mm 12 mps 765 mmHg 64%
    11:00 +15°C° 0.1 mm 12 mps 765 mmHg 62%
    12:00 +15°C° 0.1 mm 12 mps 765 mmHg 59%
    13:00 +17°C° 0.1 mm 12 mps 765 mmHg 56%
    14:00 +15°C° 0 mm 12 mps 765 mmHg 59%
    15:00 +15°C° 0 mm 12 mps 765 mmHg 61%
    16:00 +16°C° 0 mm 11 mps 765 mmHg 64%
    17:00 +14°C° 0 mm 11 mps 766 mmHg 65%
    18:00 +14°C° 0 mm 10 mps 766 mmHg 66%
    19:00 +14°C° 0 mm 10 mps 767 mmHg 67%
    20:00 +15°C° 0 mm 9 mps 767 mmHg 67%
    21:00 +15°C° 0 mm 9 mps 767 mmHg 68%
    22:00 +13°C° 0 mm 9 mps 768 mmHg 69%
    23:00 +13°C° 0 mm 8 mps 768 mmHg 70%
    Show more